TimeCST,TemperatureF,Dew PointF,Humidity,Sea Level PressureIn,VisibilityMPH,Wind Direction,Wind SpeedMPH,Gust SpeedMPH,PrecipitationIn,Events,Conditions,WindDirDegrees,DateUTC
12:55 AM,42.8,39.2,87,30.21,10.0,Calm,Calm,-,N/A,,Clear,0,2013-11-04 06:55:00
1:55 AM,44.6,39.2,81,30.21,10.0,Calm,Calm,-,N/A,,Clear,0,2013-11-04 07:55:00
2:15 AM,44.6,39.2,81,30.20,10.0,Calm,Calm,-,N/A,,Clear,0,2013-11-04 08:15:00
2:35 AM,42.8,39.2,87,30.19,10.0,Calm,Calm,-,N/A,,Clear,0,2013-11-04 08:35:00
2:55 AM,44.6,39.2,81,30.21,10.0,Calm,Calm,-,N/A,,Clear,0,2013-11-04 08:55:00
3:15 AM,42.8,39.2,87,30.21,10.0,Calm,Calm,-,N/A,,Clear,0,2013-11-04 09:15:00
3:35 AM,42.8,39.2,87,30.20,10.0,Calm,Calm,-,N/A,,Clear,0,2013-11-04 09:35:00
3:55 AM,42.8,39.2,87,30.19,10.0,Calm,Calm,-,N/A,,Clear,0,2013-11-04 09:55:00
4:15 AM,44.6,39.2,81,30.20,10.0,Calm,Calm,-,N/A,,Clear,0,2013-11-04 10:15:00
4:35 AM,44.6,39.2,81,30.23,10.0,Calm,Calm,-,N/A,,Clear,0,2013-11-04 10:35:00
4:55 AM,44.6,39.2,81,30.25,10.0,Calm,Calm,-,N/A,,Clear,0,2013-11-04 10:55:00
5:55 AM,42.8,39.2,87,30.24,10.0,Calm,Calm,-,N/A,,Clear,0,2013-11-04 11:55:00
6:55 AM,44.6,39.2,81,30.25,10.0,Calm,Calm,-,N/A,,Clear,0,2013-11-04 12:55:00
7:55 AM,48.2,42.8,82,30.28,10.0,SE,4.6,-,N/A,,Clear,130,2013-11-04 13:55:00
8:55 AM,53.6,42.8,67,30.29,10.0,SSE,5.8,-,N/A,,Clear,150,2013-11-04 14:55:00
9:55 AM,55.4,42.8,63,30.28,10.0,SSE,5.8,-,N/A,,Overcast,150,2013-11-04 15:55:00
10:55 AM,59.0,44.6,59,30.27,10.0,SSE,8.1,-,N/A,,Overcast,150,2013-11-04 16:55:00
11:55 AM,60.8,44.6,55,30.24,10.0,SSE,6.9,-,N/A,,Overcast,160,2013-11-04 17:55:00
12:55 PM,62.6,44.6,52,30.22,10.0,SE,9.2,-,N/A,,Overcast,140,2013-11-04 18:55:00
1:55 PM,66.2,44.6,46,30.21,10.0,SSE,10.4,-,N/A,,Overcast,150,2013-11-04 19:55:00
2:55 PM,64.4,44.6,49,30.22,10.0,SSE,9.2,-,N/A,,Overcast,150,2013-11-04 20:55:00
3:55 PM,62.6,44.6,52,30.23,10.0,Calm,Calm,-,N/A,,Overcast,0,2013-11-04 21:55:00
4:55 PM,59.0,48.2,67,30.24,10.0,Calm,Calm,-,N/A,,Overcast,0,2013-11-04 22:55:00
5:55 PM,55.4,48.2,77,30.25,10.0,Calm,Calm,-,N/A,,Overcast,0,2013-11-04 23:55:00
6:55 PM,55.4,48.2,77,30.25,10.0,Calm,Calm,-,N/A,,Overcast,0,2013-11-05 00:55:00
7:55 PM,55.4,48.2,77,30.25,10.0,Calm,Calm,-,N/A,,Overcast,0,2013-11-05 01:55:00
8:55 PM,53.6,48.2,82,30.25,10.0,Calm,Calm,-,N/A,,Mostly Cloudy,0,2013-11-05 02:55:00
9:55 PM,55.4,46.4,72,30.26,10.0,Calm,Calm,-,N/A,,Mostly Cloudy,0,2013-11-05 03:55:00
10:55 PM,55.4,46.4,72,30.28,10.0,Calm,Calm,-,N/A,,Mostly Cloudy,0,2013-11-05 04:55:00
11:55 PM,53.6,46.4,77,30.27,10.0,Calm,Calm,-,N/A,,Mostly Cloudy,0,2013-11-05 05:55:00